Regional Weather Roundup
Issued by NWS

Home | Current Version | Previous Version | Graphics & Text | Print | Product List | Glossary On
Versions: 1 2 3 4 5 6 7 8 9 10 11 12 13 14 15 16 17 18 19 20 21 22 23 24 25 26 27 28 29 30 31 32 33 34 35 36 37 38 39 40 41 42 43 44 45 46 47 48 49 50
000
ASUS43 KLSX 180657
RWRMO

WEATHER SUMMARY FOR MISSOURI
NATIONAL WEATHER SERVICE SPRINGFIELD MO
200 AM CDT FRI AUG 18 2017

NOTE: "FAIR" INDICATES FEW OR NO CLOUDS BELOW 12,000 FEET WITH NO
       SIGNIFICANT WEATHER AND/OR OBSTRUCTIONS TO VISIBILITY.
       CURRENT SKY AND/OR WEATHER CONDITIONS ARE NOT AVAILABLE FOR
       CHILLICOTHE AND FARMINGTON.

MOZ001>031-035>038-043-044-053-054-180800-
...NORTHERN AND WESTERN MISSOURI...

CITY           SKY/WX    TMP DP  RH WIND       PRES   REMARKS
KANSAS CTY INT CLOUDY    65  62  90 SW8       29.96S
LEE`S SUMMIT   CLOUDY    68  64  87 SW5       29.97S
ST JOSEPH      CLOUDY    59  59 100 CALM      29.95S FOG
CHILLICOTHE      N/A     61  61 100 CALM      29.95S

$$
MOZ066>068-077>081-088>096-101>105-180800-
...SOUTHWEST MISSOURI...

CITY           SKY/WX    TMP DP  RH WIND       PRES   REMARKS
SPRINGFIELD    CLEAR     62  61  96 CALM      29.99F

$$
MOZ032>034-039>042-045>050-055>058-069>072-180800-
...CENTRAL MISSOURI...

CITY           SKY/WX    TMP DP  RH WIND       PRES   REMARKS
COLUMBIA       NOT AVBL
JEFFERSON CITY CLOUDY    66  65  96 CALM      29.94F
ROLLA          CLEAR     64  63  96 SW8       29.97F
SEDALIA        CLOUDY    66  65  96 SW6       29.97S
WARRENSBURG    CLOUDY    63  61  94 CALM      29.96S

$$
MOZ051-052-059>065-180800-
...EAST CENTRAL MISSOURI...

CITY           SKY/WX    TMP DP  RH WIND       PRES   REMARKS
ST LOUIS INTL  PTCLDY    71  64  78 W8        29.91S

$$
MOZ072>076-082>087-097>100-106>115-180800-
...SOUTH CENTRAL AND SOUTHEAST MISSOURI...

CITY           SKY/WX    TMP DP  RH WIND       PRES   REMARKS
CAPE GIRARDEAU CLEAR     67  66  97 SW5       29.92S
POPLAR BLUFF   PTCLDY    71  69  93 W5        29.94F
WEST PLAINS    CLEAR     64  62  93 W5        30.01S

$$



USA.gov is the U.S. government's official web portal to all federal, state and local government web resources and services.